WJA4264 MZBZ-CYYZ

Flight info

Callsign WJA4264
Flight time N/A
Altitude 37000
Route LITRA1D LITRA UR899 CTM UG765 CZM UB881 CUN UM219 MYDIA M219 CIGAR VAD FLYYN OXMAN LINNG3
Aircraft B738/M-SDE2E3FGHIRWXY/LB1

Departure

Time N/A
Airport Philip S. W. Goldson International Airport (MZBZ)

Arrival

Time 2026-05-05 17:30
Airport Toronto Pearson International Airport (CYYZ)
Time Latitude Longitude Altitude Speed Heading
2026-05-05 17:30 43.66569 -79.61942 538 ft 11 kts 346°
2026-05-05 17:30 43.66636 -79.61906 540 ft 14 kts 47°
2026-05-05 17:30 43.66711 -79.61794 539 ft 16 kts 48°
2026-05-05 17:31 43.66790 -79.61677 538 ft 16 kts 47°
2026-05-05 17:31 43.66866 -79.61571 537 ft 16 kts 47°
2026-05-05 17:31 43.66941 -79.61455 534 ft 21 kts 47°
2026-05-05 17:31 43.67035 -79.61321 531 ft 19 kts 46°
2026-05-05 17:32 43.67129 -79.61188 530 ft 15 kts 47°
2026-05-05 17:32 43.67189 -79.61156 531 ft 9 kts 334°
2026-05-05 17:32 43.67240 -79.61214 534 ft 9 kts 318°
2026-05-05 17:32 43.67297 -79.61287 537 ft 14 kts 316°
2026-05-05 17:33 43.67356 -79.61365 541 ft 10 kts 316°
2026-05-05 17:33 43.67402 -79.61426 544 ft 10 kts 317°
2026-05-05 17:33 43.67457 -79.61496 548 ft 13 kts 316°
2026-05-05 17:33 43.67518 -79.61577 550 ft 12 kts 316°
2026-05-05 17:34 43.67570 -79.61647 550 ft 12 kts 315°
2026-05-05 17:34 43.67631 -79.61729 550 ft 16 kts 316°
2026-05-05 17:34 43.67718 -79.61842 550 ft 17 kts 316°
2026-05-05 17:34 43.67803 -79.61954 550 ft 17 kts 316°
2026-05-05 17:35 43.67906 -79.62064 550 ft 16 kts 340°
2026-05-05 17:35 43.68014 -79.62157 550 ft 15 kts 316°
2026-05-05 17:35 43.68082 -79.62247 550 ft 15 kts 317°
2026-05-05 17:35 43.68155 -79.62340 550 ft 15 kts 317°
2026-05-05 17:36 43.68227 -79.62434 550 ft 14 kts 318°
2026-05-05 17:36 43.68299 -79.62518 550 ft 14 kts 319°
2026-05-05 17:36 43.68367 -79.62603 550 ft 13 kts 316°
2026-05-05 17:36 43.68429 -79.62685 550 ft 9 kts 321°
2026-05-05 17:37 43.68486 -79.62672 550 ft 8 kts 44°
2026-05-05 17:37 43.68520 -79.62616 550 ft 7 kts 59°
2026-05-05 17:37 43.68561 -79.62548 550 ft 10 kts 47°
2026-05-05 17:37 43.68603 -79.62478 550 ft 9 kts 54°
2026-05-05 17:38 43.68641 -79.62407 550 ft 8 kts 51°
2026-05-05 17:38 43.68689 -79.62378 550 ft 7 kts
2026-05-05 17:38 43.68707 -79.62366 550 ft 1 kts 47°
2026-05-05 17:38 43.68724 -79.62347 550 ft 3 kts 78°
2026-05-05 17:39 43.68713 -79.62310 550 ft 3 kts 122°
2026-05-05 17:39 43.68709 -79.62302 550 ft 0 kts 123°